Location: Perryvale
(54.4667°N, 113.3833°W)
Time: 22:57:40
(UTC+00:00)

Vanguard 1 Rocket - Pass Details

Date: 25 May 2024
Orbit: 649 x 4221 km, 34.3° (Epoch: 13 June)

Event Time Altitude Azimuth Distance (km) Brightness Sun altitude
Rises 17:23:44 0° 241° (WSW) 8,123 12.1 49.0°
Reaches altitude 10° 17:30:41 10° 233° (SW) 6,688 11.8 49.7°
Maximum altitude 17:46:33 32° 181° (S) 3,744 11.5 51.3°
Drops below altitude 10° 17:56:13 10° 124° (SE) 4,052 11.5 52.2°
Sets 17:59:12 0° 114° (ESE) 4,647 11.5 52.5°
